User: anonymous   Login
Location: Lafig�re
(44.4503°N, 4.0357°E)
Time: 12:03:15
(UTC+00:00)
Language:

Sich 1 Rocket - Orbit

View from above orbital plane
View from above orbital plane
View from above satellite
View from above satellite

Ground track
Ground track

The orbit data is extracted from the following two-line orbital elements,

1 23659U 95046C   21167.15407111  .00000057  00000-0  45689-5 0  9995
2 23659  82.5308  30.6862 0026678 135.5429 344.0598 14.78377025390241
Epoch (UTC): 16 June 2021 03:41:51
Eccentricity: 0.0026678
inclination: 82.5308°
perigee height: 616 km
apogee height: 653 km
right ascension of ascending node: 30.6862°
argument of perigee: 135.5429°
revolutions per day: 14.78377025
mean anomaly at epoch: 344.0598°
orbit number at epoch: 39024

The dashed part of the orbit path shows where the satellite is in the earth's shadow,  

DLR